Terminal Aerodrome Forecast
Issued by NWS Miami, FL

Home | Current Version | Previous Version | Text Only | Print | Product List | Glossary On
Versions: 1 2 3 4 5 6 7 8 9 10 11 12 13 14 15 16 17 18 19 20 21 22 23 24 25 26 27 28 29
000
FTUS42 KMFL 281138
TAFPBI
TAF
KPBI 281138Z 2812/2912 VRB03KT P6SM SCT024 SCT250
     FM281400 11009KT P6SM SCT030 SCT050
     FM281800 12011KT P6SM SCT030 SCT250
     FM290300 12006KT P6SM FEW250=

USA.gov is the U.S. government's official web portal to all federal, state and local government web resources and services.